Simultaneous Nadir Overpasses (SNOs) Predictions

Prediction of SNOs between AQUA and GOES-15 Satellite Orbit:

Table of predicted SNOs for the next 14.0 days since TLE Epoch: 1/7/2017
Index Date Time (AQUA) AQUA Lat,Lon GOES-15 Lat,Lon Distance(km) Time Diff (sec)
1 01/07/2017 10:25:29 -0.51,-132.62 -0.07,-134.62 227.62 80
2 01/07/2017 22:46:53 -0.59,-137.81 0.08,-134.59 365.34 80
3 01/09/2017 22:34:42 0.07,-134.85 0.07,-134.68 19.07 80
4 01/11/2017 22:22:30 0.67,-131.89 0.06,-134.77 327.23 80
5 01/12/2017 10:43:46 0.42,-137.05 -0.07,-134.84 251.69 80
6 01/14/2017 10:31:35 -0.24,-134.09 -0.07,-134.92 93.91 80
7 01/14/2017 22:52:59 -0.85,-139.29 0.07,-134.89 499.01 80
8 01/16/2017 10:19:24 -0.91,-131.14 -0.07,-135.00 439.33 80
9 01/16/2017 22:40:47 -0.24,-136.32 0.07,-134.97 153.72 80
10 01/18/2017 22:28:36 0.44,-133.37 0.07,-135.05 191.34 80
11 01/19/2017 10:49:52 0.64,-138.53 -0.07,-135.11 388.16 80




NCC Satellite Simultaneous Nadir Overpasses (SNOs) Prediction Service
